Home > Time Zones > World Clock > Weather > France > Caen > Past weeks

Flag for France Weather past 2 weeks in Caen, France

Now
52 °F

Cool.


Feels Like: 49 °F
Forecast: 52 / 63 °F
Wind: 8 mph from West

Location: Caen Airport

Current Time: Sep 3, 2015 at 9:14:38 AM

Latest Report: Sep 3, 2015 at 8:30 AM


Visibility: N/A

Pressure: 30.04 "Hg

Humidity: 94%

Dew point: 50 °F

Location of CaenLocation

Historic Weather in Caen — Graph

°F

Caen temperature yesterday

Maximum temperature yesterday: 64 °F (at 2:30 PM)
Minimum temperature yesterday: 50 °F (at 11:30 PM)
Average temperature yesterday: 57 °F

Past Weeks' High & Low Weather Summary

 TemperatureHumidityPressure
High88 °F (Aug 22, 5:30 PM)100% (Aug 20, 12:00 AM)30.18 "Hg (Aug 20, 12:00 AM)
Low50 °F (Aug 28, 2:00 AM)38% (Aug 22, 5:30 PM)29.33 "Hg (Aug 24, 10:30 AM)
Average63 °F84%29.94 "Hg
* Reported Aug 19 8:00 AM — Sep 3 8:00 AM, Caen, Weather by CustomWeather, © 2015

Note: Actual official high and low records may vary slightly from our data, if they occured in-between our weather recording intervals... More about our weather records

Advertising

Caen weather history for previous 24 hours

 ConditionsComfort  
Time TempWeatherWind HumidityBarometerVisibility
8:00 AM
Thu, Sep 3
50 °FPassing clouds.7 mph94%30.04 "HgN/A
7:30 AM50 °FCool.7 mph100%30.04 "HgN/A
7:00 AM50 °FClear.8 mph94%30.04 "Hg10 mi
6:30 AM50 °FCool.9 mph94%30.04 "HgN/A
5:30 AM50 °FClear.8 mph94%30.04 "Hg10 mi
5:00 AM50 °FClear.8 mph94%30.04 "Hg10 mi
4:30 AM50 °FClear.8 mph94%30.04 "Hg10 mi
4:00 AM50 °FClear.9 mph88%30.04 "Hg10 mi
3:30 AM50 °FClear.9 mph94%30.07 "Hg10 mi
3:00 AM50 °FClear.9 mph94%30.07 "Hg10 mi
2:30 AM50 °FClear.8 mph94%30.07 "Hg10 mi
2:00 AM50 °FClear.8 mph94%30.07 "Hg10 mi
1:30 AM50 °FClear.8 mph94%30.07 "Hg10 mi
1:00 AM50 °FClear.7 mph88%30.07 "Hg10 mi
12:30 AM52 °FClear.8 mph88%30.07 "Hg10 mi
11:30 PM
Wed, Sep 2
50 °FClear.7 mph94%30.07 "Hg10 mi
11:00 PM52 °FClear.6 mph88%30.07 "Hg10 mi
10:30 PM52 °FClear.5 mph88%30.07 "Hg10 mi
10:00 PM52 °FClear.6 mph88%30.07 "Hg10 mi
9:30 PM54 °FSunny.5 mph82%30.07 "Hg10 mi
9:00 PM55 °FSunny.3 mph82%30.07 "Hg10 mi
8:30 PM59 °FPassing clouds.6 mph72%30.07 "HgN/A
8:00 PM59 °FSunny.7 mph72%30.07 "Hg10 mi
7:30 PM59 °FPassing clouds.8 mph72%30.07 "HgN/A
7:00 PM61 °FPassing clouds.8 mph68%30.07 "HgN/A
6:30 PM63 °FPassing clouds.9 mph64%30.07 "HgN/A
6:00 PM61 °FScattered clouds.12 mph68%30.07 "HgN/A
5:30 PM63 °FBroken clouds.8 mph64%30.07 "HgN/A
5:00 PM61 °FPartly sunny.8 mph72%30.07 "HgN/A
4:30 PM61 °FPartly sunny.9 mph72%30.07 "HgN/A
4:00 PM63 °FPassing clouds.12 mph64%30.07 "HgN/A
3:30 PM63 °FPartly sunny.10 mph64%30.07 "HgN/A
3:00 PM63 °FBroken clouds.10 mph64%30.07 "HgN/A
2:30 PM64 °FPassing clouds.10 mph60%30.07 "HgN/A
2:00 PM63 °FScattered clouds.10 mph64%30.09 "HgN/A
1:30 PM63 °FBroken clouds.10 mph68%30.09 "HgN/A
1:00 PM61 °FBroken clouds.12 mph72%30.09 "HgN/A
12:30 PM63 °FPassing clouds.12 mph64%30.09 "HgN/A
12:00 PM61 °FPassing clouds.12 mph68%30.09 "HgN/A
11:30 AM63 °FScattered clouds.13 mph68%30.09 "HgN/A
11:00 AM61 °FPassing clouds.12 mph68%30.09 "HgN/A
10:30 AM61 °FPassing clouds.10 mph72%30.09 "HgN/A
10:00 AM59 °FSunny.9 mph77%30.09 "Hg10 mi
9:30 AM57 °FSunny.9 mph88%30.09 "Hg10 mi
9:00 AM55 °FSunny.9 mph88%30.09 "Hg10 mi
Weather by CustomWeather, © 2015

See weather overviewHow to use our weather pages